Find Starlink 33635

NORAD ID: 63065 Int'l Des: 2025-035 Owner: SPXS Country: US Constellation: starlink operational
LEOCIRCULAR

Live Position

Loading 3D Globe...

About Starlink 33635

Description loading...

Upcoming Passes

Passes for default location (London). Set your location on the main map for personalized predictions.

Altitude History

Loading altitude history...

Two-Line Element Set

1 63065U 25035P 26121.28374718 .00036129 00000-0 13149-2 0 9998
2 63065 42.9985 210.0274 0000887 271.2352 88.8399 15.27607334 67770
Epoch: May 1, 2026 • Age: 13 hours

Current Status

Altitude 482.1 km
Velocity 7.63 km/s
Sub-Earth Point 9.88°N, 144.83°W
Launch Date Feb 21, 2025
Age 1.1 years
Type internet

Technical Details

Classification Payload
Mass 575.00 kg
Dry Mass 530.00 kg
Total Mass 575.00 kg
Length 0.30 m
Diameter 4.10 m
Span 29.00 m
Shape Box + pan
Manufacturer SPXS
Bus Type Starlink V2MO
Phase Status In Orbit
Owner/State SPXS/US

Most Searched